Flag for Greece Weather past 2 weeks in Iráklion, Crete, Greece

Now
66 °F

Passing clouds.


Feels Like: 66 °F
Forecast: 61 / 80 °F
Wind: 7 mph from East

Location: Heraklion Airport

Current Time: Apr 27, 2015 at 7:32:38 PM

Latest Report: Apr 27, 2015 at 6:50 PM


Visibility: N/A

Pressure: 29.95 "Hg

Humidity: 73%

Dew point: 57 °F

Location of IráklionLocation

Historic Weather in Iráklion — Graph

°F

Iráklion temperature yesterday

Maximum temperature yesterday: 72 °F (at 2:50 PM)
Minimum temperature yesterday: 57 °F (at 6:50 AM)
Average temperature yesterday: 65 °F

Past Weeks' High & Low Weather Summary

 TemperatureHumidityPressure
High79 °F (Apr 18, 1:50 PM)100% (Apr 15, 11:50 PM)30.24 "Hg (Apr 15, 11:50 PM)
Low46 °F (Apr 24, 5:20 AM)28% (Apr 19, 9:50 AM)29.80 "Hg (Apr 19, 6:50 PM)
Average62 °F67%30.07 "Hg
* Reported Apr 12 6:20 PM — Apr 27 6:20 PM, Iráklion, Weather by CustomWeather, © 2015

Note: Actual official high and low records may vary slightly from our data, if they occured in-between our weather recording intervals... More about our weather records

Advertising

Iráklion weather history for previous 24 hours

 ConditionsComfort  
Time TempWeatherWind HumidityBarometerVisibility
6:20 PM
Mon, Apr 27
66 °FPassing clouds.7 mph73%29.95 "HgN/A
5:50 PM66 °FPassing clouds.8 mph73%29.95 "HgN/A
5:20 PM66 °FPassing clouds.9 mph73%29.95 "HgN/A
4:50 PM66 °FPassing clouds.8 mph73%29.95 "HgN/A
4:20 PM66 °FPassing clouds.8 mph73%29.95 "HgN/A
3:50 PM68 °FPassing clouds.7 mph69%29.98 "HgN/A
3:20 PM68 °FPassing clouds.7 mph69%29.98 "HgN/A
2:50 PM68 °FPassing clouds.7 mph69%29.98 "HgN/A
2:20 PM68 °FPassing clouds.6 mph69%29.98 "HgN/A
1:50 PM68 °FPassing clouds.6 mph69%29.98 "HgN/A
1:20 PM66 °FPassing clouds.5 mph73%30.01 "HgN/A
12:50 PM66 °FPassing clouds.5 mph73%30.01 "HgN/A
12:20 PM66 °FPassing clouds.6 mph73%30.01 "HgN/A
11:50 AM66 °FPassing clouds.5 mph73%30.01 "HgN/A
11:20 AM66 °FPassing clouds.6 mph68%29.98 "HgN/A
10:50 AM66 °FPassing clouds.5 mph73%29.98 "HgN/A
10:20 AM64 °FPassing clouds.5 mph78%29.98 "HgN/A
9:50 AM63 °FPassing clouds.5 mph83%29.98 "HgN/A
9:20 AM63 °FPassing clouds.3 mph77%29.98 "HgN/A
8:50 AM61 °FPassing clouds.5 mph83%29.98 "HgN/A
8:20 AM61 °FPassing clouds.3 mph83%29.98 "HgN/A
7:50 AM59 °FPassing clouds.2 mph88%29.98 "HgN/A
7:20 AM55 °FPassing clouds.3 mph94%29.95 "HgN/A
6:50 AM55 °FPassing clouds.3 mph94%29.95 "HgN/A
6:20 AM57 °FPassing clouds.3 mph88%29.95 "HgN/A
4:50 AM59 °FClear.7 mph88%29.95 "Hg10 mi
4:20 AM59 °FClear.7 mph88%29.95 "Hg10 mi
3:50 AM59 °FClear.7 mph88%29.95 "Hg10 mi
3:20 AM59 °FClear.7 mph88%29.95 "Hg10 mi
2:20 AM59 °FClear.6 mph88%29.95 "Hg10 mi
1:50 AM59 °FClear.7 mph88%29.95 "Hg10 mi
1:20 AM59 °FClear.5 mph88%29.95 "Hg10 mi
12:50 AM59 °FPassing clouds.2 mph88%29.95 "HgN/A
12:20 AM59 °FClear.6 mph88%29.95 "Hg10 mi
11:50 PM
Sun, Apr 26
59 °FClear.7 mph88%29.95 "Hg10 mi
11:20 PM61 °FClear.6 mph83%29.95 "Hg10 mi
10:50 PM61 °FClear.3 mph83%29.95 "Hg10 mi
10:20 PM61 °FClear.3 mph83%29.92 "Hg10 mi
9:50 PM61 °FClear.3 mph83%29.92 "Hg10 mi
9:20 PM63 °FClear.3 mph83%29.89 "Hg10 mi
8:50 PM63 °FSunny.9 mph83%29.89 "Hg10 mi
8:20 PM64 °FSunny.13 mph78%29.89 "Hg10 mi
7:50 PM64 °FSunny.14 mph78%29.89 "Hg10 mi
7:20 PM66 °FPassing clouds.14 mph73%29.89 "HgN/A
Weather by CustomWeather, © 2015

See weather overviewHow to use our weather pages